TimeCDT,TemperatureF,Dew PointF,Humidity,Sea Level PressureIn,VisibilityMPH,Wind Direction,Wind SpeedMPH,Gust SpeedMPH,PrecipitationIn,Events,Conditions,WindDirDegrees,DateUTC
12:52 AM,66.9,63.0,87,29.81,10.0,WNW,5.8,-,N/A,,Clear,300,2013-06-28 05:52:00
1:52 AM,68.0,62.1,81,29.78,10.0,WNW,6.9,-,N/A,,Clear,300,2013-06-28 06:52:00
2:52 AM,64.9,62.1,90,29.78,10.0,WNW,6.9,-,N/A,,Clear,290,2013-06-28 07:52:00
3:52 AM,64.0,61.0,90,29.76,10.0,West,6.9,-,N/A,,Clear,260,2013-06-28 08:52:00
4:52 AM,64.0,61.0,90,29.75,10.0,West,5.8,-,N/A,,Clear,280,2013-06-28 09:52:00
5:52 AM,64.0,60.1,87,29.76,10.0,West,5.8,-,N/A,,Clear,270,2013-06-28 10:52:00
6:52 AM,66.9,61.0,81,29.77,10.0,West,6.9,-,N/A,,Clear,260,2013-06-28 11:52:00
7:52 AM,71.1,61.0,70,29.77,10.0,WNW,8.1,-,N/A,,Clear,290,2013-06-28 12:52:00
8:52 AM,73.9,61.0,64,29.77,10.0,NW,13.8,-,N/A,,Clear,320,2013-06-28 13:52:00
9:52 AM,77.0,60.1,56,29.76,10.0,NW,12.7,-,N/A,,Clear,320,2013-06-28 14:52:00
10:52 AM,79.0,61.0,54,29.75,10.0,NW,12.7,-,N/A,,Clear,320,2013-06-28 15:52:00
11:52 AM,80.1,60.1,50,29.75,10.0,WNW,21.9,28.8,N/A,,Clear,300,2013-06-28 16:52:00
12:52 PM,81.0,59.0,47,29.73,10.0,WNW,19.6,27.6,N/A,,Partly Cloudy,290,2013-06-28 17:52:00
1:52 PM,80.1,57.9,47,29.72,10.0,WNW,23.0,33.4,N/A,,Scattered Clouds,300,2013-06-28 18:52:00
2:52 PM,80.1,57.9,47,29.69,10.0,NW,21.9,33.4,N/A,,Mostly Cloudy,310,2013-06-28 19:52:00
3:52 PM,78.1,60.1,54,29.70,10.0,NW,17.3,25.3,0.00,,Mostly Cloudy,320,2013-06-28 20:52:00
4:52 PM,81.0,59.0,47,29.69,10.0,NNW,21.9,31.1,N/A,,Clear,330,2013-06-28 21:52:00
5:52 PM,80.1,57.9,47,29.68,10.0,NW,19.6,32.2,N/A,,Partly Cloudy,320,2013-06-28 22:52:00
6:52 PM,78.1,59.0,52,29.69,10.0,NW,19.6,27.6,N/A,,Scattered Clouds,320,2013-06-28 23:52:00
7:52 PM,75.0,59.0,57,29.69,10.0,NW,15.0,23.0,N/A,,Clear,320,2013-06-29 00:52:00
8:52 PM,73.0,60.1,64,29.69,10.0,NW,10.4,-,N/A,,Clear,310,2013-06-29 01:52:00
9:52 PM,70.0,60.1,71,29.70,10.0,WNW,6.9,-,N/A,,Scattered Clouds,300,2013-06-29 02:52:00
10:52 PM,68.0,61.0,78,29.68,10.0,WNW,6.9,-,N/A,,Scattered Clouds,300,2013-06-29 03:52:00
11:52 PM,68.0,61.0,78,29.68,10.0,NW,8.1,-,N/A,,Clear,310,2013-06-29 04:52:00